Regional Weather Roundup
Issued by NWS

Home | Current Version | Previous Version | Graphics & Text | Print | Product List | Glossary On
Versions: 1 2 3 4 5 6 7 8 9 10 11 12 13 14 15 16 17 18 19 20 21 22 23 24 25 26 27
000
ASUS45 KCYS 142110
RWRWY

WYOMING REGIONAL WEATHER ROUNDUP
NATIONAL WEATHER SERVICE CHEYENNE WY
200 PM MST THU DEC 14 2017

NOTE:  "FAIR" INDICATES FEW OR NO CLOUDS BELOW 12,000 FEET
WITH NO SIGNIFICANT WEATHER AND/OR OBSTRUCTIONS TO VISIBILITY.

WYZ001-142200-
YELLOWSTONE NATIONAL PARK

CITY           SKY/WX    TMP DP  RH WIND       PRES   REMARKS
LK YELLOWSTONE   N/A     22  18  85 CALM      30.34F
W YELLOWSTONE  NOT AVBL

$$
WYZ002>013-054>058-071-098>099-142200-
NORTHERN WYOMING

CITY           SKY/WX    TMP DP  RH WIND       PRES   REMARKS
JACKSON        FAIR      33  15  47 N3        30.36F
CODY           FAIR      41  14  33 S6        30.25F
GREYBULL       FAIR      44  19  36 NW6       30.24F
WORLAND        FAIR      42  20  41 N8        30.26F
SHERIDAN       FAIR      42  22  44 NW20G25   30.22F
BUFFALO        FAIR      39  17  41 NW14      30.21F WCI  31
GILLETTE       CLOUDY    32  24  72 NW13      30.21F WCI  22
HULETT         CLOUDY    30  21  69 MISG      30.21F
NEWCASTLE      CLOUDY    28  21  74 NW18G26   30.21S WCI  16

$$
WYZ014>020-022>026-101>103-142200-
CENTRAL WYOMING

CITY           SKY/WX    TMP DP  RH WIND       PRES   REMARKS
BIG PINEY      FAIR      34  15  46 S5        30.28F WCI  30
PINEDALE       FAIR      27  27 100 SE7       30.28F WCI  19
DUBOIS         FAIR      39   1  20 NW16G23   30.22S WCI  30
LANDER         FAIR      35  24  64 SE7       30.26F WCI  29
RIVERTON       FAIR      33  23  66 SW7       30.27F WCI  27
CASPER         FAIR      32  22  66 SW5       30.25F WCI  27
DOUGLAS        PTSUNNY   34  18  52 NW21G29   30.24F WCI  22

$$
WYZ021-027>030-104>119-142200-
SOUTHERN WYOMING

CITY           SKY/WX    TMP DP  RH WIND       PRES   REMARKS
EVANSTON       FAIR      36  18  48 N5        30.33F WCI  32
FORT BRIDGER   FAIR      39  18  43 W15       30.33F WCI  30
ROCK SPRINGS   FAIR      34  20  56 SW10      30.29F WCI  26
DIXON          CLOUDY    33  19  55 N6        30.33S WCI  28
RAWLINS        PTSUNNY   29  21  72 W15       30.27F WCI  18
SARATOGA       MOCLDY    28  21  74 W8        30.29S WCI  20
LARAMIE        MIX PCPN  25  18  74 NW22      30.19S WCI  10
CHEYENNE       LGT SNOW  27  23  85 N15       30.18F FOG     WCI  15
TORRINGTON     CLOUDY    35  20  54 N25G38    30.20R WCI  23
PINE BLUFFS    CLOUDY    32  21  64 N21G30    30.20R WCI  20

$$




USA.gov is the U.S. government's official web portal to all federal, state and local government web resources and services.